{"data":{"norad_id":67327,"epoch":"2026-05-24T16:11:57.647328Z","epoch_age_seconds":109947,"freshness":"FRESH","line1":"1 67327U 26002Y   26144.67497277  .00013887  00000+0  51321-3 0  9992","line2":"2 67327  42.9991 255.8118 0001540  56.9590 303.1410 15.27580429 22701","mean_motion":15.27580429,"eccentricity":0.000154,"inclination_deg":42.9991,"raan_deg":255.8118,"arg_perigee_deg":56.959,"mean_anomaly_deg":303.141,"bstar":0.00051321,"rev_number":2270,"period_min":94.266722240129,"perigee_km":481.99118899866,"apogee_km":484.10443392059,"semimajor_km":6861.1848114596,"source":"CELESTRAK","updated_at":"2026-05-25T13:38:21.519807Z"}}